Regional Weather Roundup
Issued by NWS

Home | Current Version | Previous Version | Graphics & Text | Print | Product List | Glossary On
Versions: 1 2 3 4 5 6 7 8 9 10 11 12 13 14 15 16 17 18 19 20 21 22 23 24 25 26 27 28 29 30 31 32 33 34 35 36 37 38 39 40 41 42 43 44 45 46 47 48 49 50
000
ASUS43 KMPX 250610
RWRMN
WEATHER ROUNDUP FOR MINNESOTA
NATIONAL WEATHER SERVICE TWIN CITIES/CHANHASSEN MN
100 AM CDT SAT APR 25 2015


NOTE: "FAIR" INDICATES FEW OR NO CLOUDS BELOW 12,000 FEET WITH NO
SIGNIFICANT WEATHER AND/OR OBSTRUCTIONS TO VISIBILITY. N/A MEANS
CURRENT SKY AND/OR WEATHER CONDITIONS ARE NOT AVAILABLE.

MNZ060>063-068>070-250700-
   Twin Cities Metro

CITY           SKY/WX    TMP DP  RH WIND       PRES   REMARKS
TWIN CITIES    CLOUDY    44  40  85 E15       29.81S
6HR MIN TEMP:  44; 6HR MAX TEMP:  45; 6HR PCP:  0.12;

ST PAUL        CLOUDY    44  38  79 SE14      29.83S
CRYSTAL        CLOUDY    46  38  73 SE12G20   29.80S
BLAINE         CLOUDY    46  39  76 E13G18    29.81R
LAKEVILLE      CLOUDY    41  39  93 E13       29.80S
EDEN PRAIRIE   CLOUDY    44  40  85 E16G26    29.79R
6HR MIN TEMP:  43; 6HR MAX TEMP:  44; 6HR PCP:  0.19;

SOUTH ST PAUL  CLOUDY    44  39  81 SE6       29.82R
LAKE ELMO      CLOUDY    45  37  76 E13       29.83R
$$
MNZ001>005-007-008-013>017-022>024-027-028-250700-
   Northwest Minnesota

CITY           SKY/WX    TMP DP  RH WIND       PRES   REMARKS
BEMIDJI        CLOUDY    40  31  69 E10       29.84S
HALLOCK        CLOUDY    43  34  70 E9        29.85S
ROSEAU         CLOUDY    41  34  75 E8        29.88R
WARROAD        CLOUDY    36  32  87 E6        29.90R
THIEF RVR FALL CLOUDY    43  30  61 E9        29.85S
CROOKSTON      CLOUDY    45  34  65 E6        29.84S
FOSSTON        CLOUDY    41  30  65 E5        29.84S
DETROIT LAKES  CLOUDY    41  32  70 SE10      29.81R
MOORHEAD       CLOUDY    45  36  70 E5        29.81R
PARK RAPIDS    CLOUDY    41  32  70 E8        29.82S
MAHNOMEN       CLOUDY    42  32  68 E5        29.82R
$$
MNZ006-009>011-018-025>026-250700-
   North Central Minnesota

CITY           SKY/WX    TMP DP  RH WIND       PRES   REMARKS
BAUDETTE       CLOUDY    40  23  50 E13       29.89R
FLAG ISLAND    CLOUDY    39  27  60 E9        29.90R
INTL FALLS     CLOUDY    38  21  50 E10       29.92S
6HR MIN TEMP:  38; 6HR MAX TEMP:  41;

WASKISH        CLOUDY    41  30  65 CALM      29.88S
BIG FORK       CLOUDY    39  21  48 E7        29.90S
LONGVILLE      CLOUDY    39  30  70 CALM      29.85S
GRAND RAPIDS   CLOUDY    37  19  48 E7        29.88F
CRANE LAKE     CLOUDY    36  16  44 CALM      29.97R
ORR            CLOUDY    37  14  38 CALM      29.90S
COOK           CLOUDY    36  18  48 E5        29.93R
WALKER         CLOUDY    40  32  74 E7        29.85R
$$
MNZ012-019>021-037-250700-
   Northeast Minnesota

CITY           SKY/WX    TMP DP  RH WIND       PRES   REMARKS
DULUTH         CLOUDY    36  24  62 E16G23    29.90F
6HR MIN TEMP:  35; 6HR MAX TEMP:  37;

ELY            CLOUDY    36  16  44 E6        29.95R
HIBBING        CLOUDY    37  18  46 E10       29.90F
EVELETH        CLOUDY    36  19  51 E7        29.92S
DULUTH HARBOR  CLOUDY    36  32  87 NE18      29.95S
TWO HARBORS    CLOUDY    39  25  56 NE13G20   29.93R
SILVER BAY     CLOUDY    37  21  52 NE10G16   29.94S
GRAND MARAIS     N/A     36  21  54 NE8       30.02F
G MARAIS ARPRT CLOUDY    30   9  40 NE9       29.98F WCI  22
$$
MNZ029>031-032-039>041-046>048-054>057-064-250700-
   West Central Minnesota

CITY           SKY/WX    TMP DP  RH WIND       PRES   REMARKS
FERGUS FALLS   CLOUDY    45  37  76 SE12      29.79S
WHEATON        CLOUDY    41  39  93 E13       29.77S FOG
MORRIS         FOG       43  43 100 E14       29.75S VSB 1
ALEXANDRIA     LGT RAIN  41  40  96 E13       29.79R FOG
ELBOW LAKE     CLOUDY    42  41  97 E12       29.77S FOG
WADENA         CLOUDY    39  32  75 E7        29.80R
GLENWOOD       CLOUDY    41  39  93 E14G20    29.78S FOG
APPLETON       MOCLDY    45  39  81 E13       29.74S
BENSON         CLOUDY    43  39  87 SE10      29.75F FOG
ORTONVILLE     DRIZZLE   43  39  87 E13       29.73S
MADISON        LGT RAIN  45  43  93 E13       29.73S
WILLMAR        MOCLDY    45  41  87 E15       29.77R
$$
MNZ033>034-036-042>043-049>051-058-059-250700-
   Central Minnesota

CITY           SKY/WX    TMP DP  RH WIND       PRES   REMARKS
ST CLOUD       CLOUDY    44  39  82 E7        29.80R
6HR MIN TEMP:  44; 6HR MAX TEMP:  46;

SAUK CENTRE    CLOUDY    41  40  93 E7        29.79S FOG
PAYNESVILLE    CLOUDY    40  39  97 NE9       29.79R
AITKIN         CLOUDY    37  30  75 E9        29.84S
PINE RIVER     CLOUDY    39  32  75 E9        29.87S
BRAINERD       CLOUDY    40  32  73 E7        29.83S
STAPLES        CLOUDY    39  30  70 E7        29.81S
LONG PRAIRIE   CLOUDY    41  37  87 E9        29.80S
LITTLE FALLS   CLOUDY    43  36  75 E3        29.81S
LITCHFIELD     CLOUDY    45  43  93 E13       29.78R
BUFFALO        CLOUDY    44  39  82 E9G18     29.80F
MAPLE LAKE     CLOUDY    45  41  86 E8        29.80S
$$
MNZ037-044-045-052-053-250700-
   East Central Minnesota

CITY           SKY/WX    TMP DP  RH WIND       PRES   REMARKS
PRINCETON      CLOUDY    46  37  71 E9        29.82S
MORA           CLOUDY    41  32  70 E5        29.85S
CAMBRIDGE      CLOUDY    48  36  61 SE7       29.81S
RUSH CITY      CLOUDY    46  33  61 E5        29.84S
MOOSE LAKE     CLOUDY    34  30  86 NE6       29.87S WCI  29
HINCKLEY       CLOUDY    43  32  65 NE9       29.86S
CLOQUET        CLOUDY    34  27  75 E10G16    29.90S WCI  26
MCGREGOR       CLOUDY    36  30  80 E9        29.88R
$$
MNZ071>073-080-081-089-090-097-098-250700-
   Southwest Minnesota

CITY           SKY/WX    TMP DP  RH WIND       PRES   REMARKS
MONTEVIDEO     CLOUDY    45  41  87 SE13      29.75R
GRANITE FALLS  CLOUDY    44  40  85 E10G17    29.75R
CANBY          LGT RAIN  44  42  94 E13       29.72F
MARSHALL       CLOUDY    45  39  81 SE12G18   29.70F
REDWOOD FALLS  CLOUDY    45  40  82 E13       29.73R
OLIVIA         CLOUDY    41  36  81 E13G18    29.74S
PIPESTONE      CLOUDY    46  45  93 E7        29.69S
WINDOM         MOCLDY    45  41  87 E10       29.70S
WORTHINGTON    CLOUDY    45  41  87 E15       29.67F
JACKSON        CLOUDY    45  41  87 E14       29.69F
TRACY          CLOUDY    46  43  90 E8        29.71S
SLAYTON        CLOUDY    45  44  97 E10       29.70R
$$
MNZ065>067-074>077-082>085-091>093-250700-
   South Central Minnesota

CITY           SKY/WX    TMP DP  RH WIND       PRES   REMARKS
MANKATO        CLOUDY    45  37  76 E15G21    29.76R
NEW ULM        CLOUDY    45  39  81 E13       29.74R
ST JAMES       CLOUDY    45  39  81 E10       29.73S
FAIRMONT       CLOUDY    45  19  36 E14       29.71R
GLENCOE        CLOUDY    45  42  91 E15G21    29.76F
FARIBAULT      CLOUDY    45  39  81 E12       29.78F
OWATONNA       MOCLDY    43  39  87 E16G22    29.77S
WASECA         CLOUDY    43  37  81 E18       29.77S
ALBERT LEA     CLOUDY    45  41  87 E12G17    29.75R
$$
MNZ078>079-086>088-094>096-250700-
   Southeast Minnesota

CITY           SKY/WX    TMP DP  RH WIND       PRES   REMARKS
ROCHESTER      CLOUDY    41  38  89 E14       29.79R
6HR MIN TEMP:  41; 6HR MAX TEMP:  43; 6HR PCP:  0.04;

RED WING       CLOUDY    45  39  81 E14G21    29.82S
STANTON        CLOUDY    44  39  84 E10       29.79S
DODGE CENTER   CLOUDY    43  39  87 E17       29.77F
AUSTIN         CLOUDY    43  37  81 E20       29.75R
PRESTON        CLOUDY    40  36  85 E15G22    29.79S
$$
ABBREVIATIONS USED IN REMARKS
   TC - TEMPERATURES IN CELSIUS
  WCI - WIND CHILL INDEX
   HX - HEAT INDEX
  VSB - VISIBILITY
$$


USA.gov is the U.S. government's official web portal to all federal, state and local government web resources and services.